Flag for U.S.A. Weather past 2 weeks in Pueblo, Colorado, U.S.A.

Now
60 °F

Clear.


Feels Like: 60 °F
Forecast: 60 / 71 °F
Wind: 3 mph from West

Location: Pueblo Memorial Airport

Current Time: Sep 21, 2014 at 6:22:42 AM

Latest Report: Sep 21, 2014 at 5:53 AM


Visibility: 9 mi

Pressure: 30.16 "Hg

Humidity: 93%

Dew point: 58 °F

Location of PuebloLocation

Historic Weather in Pueblo — Graph

°F

Pueblo temperature yesterday

Maximum temperature yesterday: 89 °F (at 2:53 PM)
Minimum temperature yesterday: 56 °F (at 6:53 AM)
Average temperature yesterday: 74 °F

Past Weeks' High & Low Weather Summary

 TemperatureHumidityPressure
High91 °F (Sep 17, 2:53 PM)100% (Sep 16, 4:53 AM)30.50 "Hg (Sep 16, 4:53 AM)
Low39 °F (Sep 13, 6:53 AM)10% (Sep 14, 1:53 PM)29.55 "Hg (Sep 9, 2:53 PM)
Average65 °F53%29.98 "Hg
* Reported Sep 6 4:53 AM — Sep 21 4:53 AM, Pueblo, Weather by CustomWeather, © 2014

Note: Actual official high and low records may vary slightly from our data, if they occured in-between our weather recording intervals... More about our weather records

Advertising

Pueblo weather history for previous 24 hours

 ConditionsComfort  
Time TempWeatherWind HumidityBarometerVisibility
4:53 AM
Sep 21
60 °FPassing clouds.5 mph93%30.14 "Hg10 mi
3:53 AM61 °FLight rain. Partly cloudy.9 mph90%30.14 "Hg10 mi
2:53 AM61 °FLight rain. Fog.10 mph90%30.12 "Hg6 mi
2:00 AM61 °FThundershowers. Fog.10 mph90%30.34 "Hg6 mi
12:53 AM70 °FOvercast.5 mph47%30.11 "Hg10 mi
11:53 PM
Sep 20
70 °FMostly cloudy.6 mph47%30.09 "Hg10 mi
10:53 PM71 °FPassing clouds.7 mph44%30.08 "Hg10 mi
9:53 PM72 °FPassing clouds.9 mph41%30.05 "Hg10 mi
8:53 PM74 °FClear.13 mph38%30.04 "Hg10 mi
7:53 PM75 °FSunny.9 mph36%30.01 "Hg10 mi
6:53 PM81 °FSunny.12 mph30%30.00 "Hg10 mi
5:53 PM85 °FSunny.17 mph27%29.96 "Hg10 mi
4:53 PM86 °FLight rain. Sunny.14 mph25%29.94 "Hg10 mi
3:53 PM89 °FSunny.13 mph22%29.93 "Hg10 mi
2:53 PM89 °FSunny.13 mph22%29.92 "Hg10 mi
1:53 PM87 °FSunny.7 mph23%29.96 "Hg10 mi
12:53 PM86 °FSunny.12 mph28%29.98 "Hg10 mi
11:53 AM83 °FSunny.12 mph28%30.00 "Hg10 mi
6:53 AM56 °FClear.7 mph65%29.94 "Hg10 mi
Weather by CustomWeather, © 2014

See weather overviewHow to use our weather pages